Rensselaer, IN

6:53 PM CDT on September 26, 2016 (GMT -0500)
Jasper County

Weather History for KRZL - January, 2014

Change the Weather History Date:

Tuesday, January 21, 2014

  Actual Average (KVPZ) Record (KVPZ)
Temperature  
Mean Temperature 11 °F 23 °F  
Max Temperature 21 °F 31 °F 62 °F (1999)
Min Temperature 0 °F 16 °F -7 °F (2000)
Degree Days  
Heating Degree Days 54 42  
Month to date heating degree days 873  
Since 1 July heating degree days 3275  
Cooling Degree Days 0 0  
Month to date cooling degree days 0  
Year to date cooling degree days 0  
Moisture  
Dew Point 4 °F    
Average Humidity 73    
Maximum Humidity 93    
Minimum Humidity 57    
Precipitation  
Precipitation 0.00 in 0.06 in 0.15 in (2010)
Month to date precipitation 1.15  
Year to date precipitation 1.15  
Sea Level Pressure  
Sea Level Pressure 30.17 in    
Wind  
Wind Speed 13 mph (NW)    
Max Wind Speed 25 mph    
Max Gust Speed 31 mph    
Visibility 9 miles    
Events Snow    
T = Trace of Precipitation, MM = Missing Value Source: NWS Daily Summary

Daily Weather History Graph

Daily Weather History Graph

Search for Another Location

Airport or City:

Trip Planner

Search our weather history database for the weather conditions in past years. The results will help you decide how hot, cold, wet, or windy it might be!

Date:

Astronomy

Jan. 21, 2014 Rise Set
Actual Time 7:08 AM CST 4:52 PM CST
Civil Twilight 6:38 AM CST 5:22 PM CST
Nautical Twilight 6:04 AM CST 5:55 PM CST
Astronomical Twilight 5:32 AM CST 6:28 PM CST
Moon 10:27 PM CST (1/21) 9:34 AM CST (1/21)
Length of Visible Light 10h 44m
Length of Day
9h 44m
Waning Gibbous, 74% of the Moon is Illuminated
Jan 21
Waning Gibbous
Jan 23
Last Quarter
Jan 30
New
Feb 6
First Quarter
Feb 14
Full

Hourly Weather History & Observations

Time (CST) Temp. Windchill Dew Point Humidity Pressure Visibility Wind Dir Wind Speed Gust Speed Precip Events Conditions
12:15 AM 21.2 °F 6.0 °F 19.4 °F 93% 29.95 in 4.0 mi NNE 19.6 mph 26.5 mph N/A Snow Light Snow
12:35 AM 21.2 °F 6.4 °F 17.6 °F 86% 29.96 in 4.0 mi NNE 18.4 mph 23.0 mph N/A Snow Light Snow
12:55 AM 21.2 °F 6.4 °F 17.6 °F 86% 29.96 in 2.5 mi NNE 18.4 mph - N/A Snow Light Snow
1:15 AM 21.2 °F 8.3 °F 17.6 °F 86% 29.97 in 2.0 mi North 13.8 mph 19.6 mph N/A Snow Light Snow
1:35 AM 19.4 °F 2.8 °F 17.6 °F 93% 29.99 in 4.0 mi NNE 21.9 mph 28.8 mph N/A Snow Light Snow
1:55 AM 19.4 °F 2.1 °F 14.0 °F 80% 30.01 in 3.0 mi NNE 24.2 mph 31.1 mph N/A Snow Light Snow
2:15 AM 17.6 °F 2.2 °F 14.0 °F 86% 30.03 in 5.0 mi NNE 17.3 mph 25.3 mph N/A Snow Light Snow
2:35 AM 17.6 °F 1.7 °F 12.2 °F 79% 30.04 in 4.0 mi NNE 18.4 mph 27.6 mph N/A Snow Light Snow
2:55 AM 15.8 °F -0.6 °F 12.2 °F 86% 30.04 in 7.0 mi NNE 18.4 mph 23.0 mph N/A   Overcast
3:15 AM 15.8 °F -1.1 °F 10.4 °F 79% 30.05 in 7.0 mi NNE 19.6 mph - N/A   Overcast
3:35 AM 15.8 °F -1.9 °F 8.6 °F 73% 30.06 in 5.0 mi NNE 21.9 mph 28.8 mph N/A   Haze
3:55 AM 15.8 °F -3.1 °F 6.8 °F 68% 30.07 in 10.0 mi NNE 25.3 mph 28.8 mph N/A   Overcast
4:15 AM 14.0 °F -3.0 °F 6.8 °F 73% 30.09 in 10.0 mi NNE 18.4 mph 26.5 mph N/A   Overcast
4:35 AM 14.0 °F -3.9 °F 5.0 °F 67% 30.10 in 10.0 mi NNE 20.7 mph 26.5 mph N/A   Overcast
4:55 AM 14.0 °F -3.0 °F 3.2 °F 62% 30.11 in 10.0 mi NNE 18.4 mph 27.6 mph N/A   Overcast
5:15 AM 14.0 °F -3.4 °F 3.2 °F 62% 30.11 in 10.0 mi NNE 19.6 mph 29.9 mph N/A   Scattered Clouds
5:35 AM 12.2 °F -5.3 °F 1.4 °F 62% 30.12 in 10.0 mi NNE 18.4 mph - N/A   Clear
5:55 AM 12.2 °F -3.1 °F 1.4 °F 62% 30.13 in 10.0 mi NE 13.8 mph - N/A   Clear
6:15 AM 12.2 °F -3.1 °F -0.4 °F 57% 30.14 in 10.0 mi NNE 13.8 mph - N/A   Clear
6:35 AM 12.2 °F 0.7 °F -0.4 °F 57% 30.16 in 10.0 mi North 8.1 mph - N/A   Clear
6:55 AM 12.2 °F -0.2 °F -0.4 °F 57% 30.17 in 10.0 mi North 9.2 mph - N/A   Clear
7:15 AM 12.2 °F 0.7 °F -0.4 °F 57% 30.18 in 10.0 mi North 8.1 mph - N/A   Mostly Cloudy
7:35 AM 12.2 °F -0.2 °F -0.4 °F 57% 30.19 in 10.0 mi North 9.2 mph - N/A   Mostly Cloudy
7:55 AM 12.2 °F -0.2 °F -0.4 °F 57% 30.20 in 10.0 mi North 9.2 mph - N/A   Overcast
8:15 AM 12.2 °F 0.7 °F -0.4 °F 57% 30.21 in 10.0 mi NNW 8.1 mph - N/A   Mostly Cloudy
8:35 AM 12.2 °F 2.9 °F -0.4 °F 57% 30.22 in 10.0 mi NNW 5.8 mph - N/A   Scattered Clouds
8:55 AM 12.2 °F 2.9 °F -0.4 °F 57% 30.22 in 10.0 mi North 5.8 mph - N/A   Mostly Cloudy
9:15 AM 10.4 °F -0.4 °F 5.0 °F 79% 30.23 in 10.0 mi NW 6.9 mph - N/A   Mostly Cloudy
9:35 AM 10.4 °F -1.5 °F 6.8 °F 85% 30.24 in 10.0 mi NW 8.1 mph - N/A   Scattered Clouds
9:55 AM 12.2 °F -0.2 °F 6.8 °F 79% 30.24 in 10.0 mi NW 9.2 mph - N/A   Clear
10:15 AM 12.2 °F -1.0 °F 6.8 °F 79% 30.24 in 10.0 mi NW 10.4 mph - N/A   Clear
10:35 AM 12.2 °F -0.2 °F 5.0 °F 73% 30.24 in 10.0 mi NW 9.2 mph - N/A   Clear
10:55 AM 12.2 °F 0.7 °F 5.0 °F 73% 30.24 in 10.0 mi NW 8.1 mph - N/A   Clear
11:15 AM 14.0 °F 5.1 °F 5.0 °F 67% 30.22 in 10.0 mi WNW 5.8 mph - N/A   Clear
11:35 AM 14.0 °F 3.9 °F 5.0 °F 67% 30.23 in 10.0 mi NW 6.9 mph - N/A   Clear
11:55 AM 14.0 °F 2.9 °F 5.0 °F 67% 30.23 in 10.0 mi WNW 8.1 mph - N/A   Clear
12:15 PM 14.0 °F 2.9 °F 5.0 °F 67% 30.22 in 10.0 mi WNW 8.1 mph - N/A   Clear
12:35 PM 14.0 °F 2.0 °F 5.0 °F 67% 30.22 in 10.0 mi WNW 9.2 mph - N/A   Clear
12:55 PM 14.0 °F 2.0 °F 5.0 °F 67% 30.22 in 10.0 mi WNW 9.2 mph - N/A   Clear
1:15 PM 14.0 °F 2.9 °F 5.0 °F 67% 30.21 in 10.0 mi WNW 8.1 mph - N/A   Clear
1:35 PM 14.0 °F 0.5 °F 5.0 °F 67% 30.21 in 10.0 mi WNW 11.5 mph 16.1 mph N/A   Clear
1:55 PM 14.0 °F 0.5 °F 5.0 °F 67% 30.21 in 10.0 mi West 11.5 mph - N/A   Clear
2:15 PM 14.0 °F 2.0 °F 5.0 °F 67% 30.20 in 10.0 mi WNW 9.2 mph - N/A   Clear
2:35 PM 14.0 °F 2.0 °F 5.0 °F 67% 30.21 in 10.0 mi WNW 9.2 mph - N/A   Clear
2:55 PM 12.2 °F -1.8 °F 3.2 °F 67% 30.21 in 10.0 mi WNW 11.5 mph - N/A   Clear
3:15 PM 12.2 °F -1.0 °F 3.2 °F 67% 30.22 in 10.0 mi WNW 10.4 mph - N/A   Clear
3:35 PM 12.2 °F -0.2 °F 3.2 °F 67% 30.22 in 10.0 mi WNW 9.2 mph - N/A   Clear
3:55 PM 12.2 °F -0.2 °F 3.2 °F 67% 30.23 in 10.0 mi West 9.2 mph - N/A   Clear
4:15 PM 12.2 °F 1.7 °F 3.2 °F 67% 30.23 in 10.0 mi West 6.9 mph - N/A   Clear
4:35 PM 10.4 °F -1.5 °F 1.4 °F 67% 30.22 in 10.0 mi West 8.1 mph - N/A   Clear
4:55 PM 10.4 °F -0.4 °F 1.4 °F 67% 30.22 in 10.0 mi West 6.9 mph - N/A   Clear
5:15 PM 8.6 °F -2.6 °F 1.4 °F 73% 30.23 in 10.0 mi West 6.9 mph - N/A   Clear
5:35 PM 8.6 °F -2.6 °F 1.4 °F 73% 30.23 in 10.0 mi West 6.9 mph - N/A   Clear
5:55 PM 8.6 °F -3.7 °F 1.4 °F 73% 30.22 in 10.0 mi WNW 8.1 mph - N/A   Clear
6:15 PM 8.6 °F -2.6 °F -0.4 °F 67% 30.22 in 10.0 mi West 6.9 mph - N/A   Clear
6:35 PM 6.8 °F -3.5 °F -0.4 °F 72% 30.22 in 10.0 mi West 5.8 mph - N/A   Clear
6:55 PM 6.8 °F -2.0 °F -0.4 °F 72% 30.22 in 10.0 mi WSW 4.6 mph - N/A   Clear
7:15 PM 6.8 °F -3.5 °F -0.4 °F 72% 30.22 in 10.0 mi West 5.8 mph - N/A   Clear
7:35 PM 5.0 °F -6.9 °F -0.4 °F 78% 30.22 in 10.0 mi SW 6.9 mph - N/A   Clear
7:55 PM 5.0 °F -4.1 °F -0.4 °F 78% 30.22 in 10.0 mi SW 4.6 mph - N/A   Clear
8:15 PM 5.0 °F -2.1 °F -0.4 °F 78% 30.21 in 10.0 mi SW 3.5 mph - N/A   Clear
8:35 PM 3.2 °F -7.8 °F -0.4 °F 85% 30.21 in 10.0 mi WSW 5.8 mph - N/A   Clear
8:55 PM 3.2 °F -9.1 °F -0.4 °F 85% 30.21 in 10.0 mi WSW 6.9 mph - N/A   Clear
9:15 PM 3.2 °F -9.1 °F -0.4 °F 85% 30.21 in 10.0 mi WSW 6.9 mph - N/A   Clear
9:35 PM 3.2 °F -7.8 °F -0.4 °F 85% 30.21 in 10.0 mi WSW 5.8 mph - N/A   Clear
9:55 PM 1.4 °F -9.9 °F -0.4 °F 92% 30.21 in 10.0 mi WSW 5.8 mph - N/A   Clear
10:15 PM 1.4 °F -9.9 °F -2.2 °F 85% 30.20 in 10.0 mi WSW 5.8 mph - N/A   Clear
10:35 PM 1.4 °F -8.3 °F -2.2 °F 85% 30.20 in 10.0 mi SW 4.6 mph - N/A   Clear
10:55 PM 1.4 °F -8.3 °F -2.2 °F 85% 30.19 in 10.0 mi WSW 4.6 mph - N/A   Clear
11:15 PM 1.4 °F -8.3 °F -4.0 °F 78% 30.19 in 10.0 mi WSW 4.6 mph - N/A   Clear
11:35 PM 1.4 °F -11.3 °F -4.0 °F 78% 30.20 in 10.0 mi West 6.9 mph - N/A   Clear
11:55 PM -0.4 °F -10.4 °F -5.8 °F 78% 30.20 in 10.0 mi WSW 4.6 mph - N/A   Clear